| time (UTC) | temp F | wind direction | speed knots | gust knots | rain 1hr in | rain 24hr in | rain mn in | humidity % | barometer mb |
| 20260504223047 | 77 | 141 | 0.9 | 4.3 | 0.00 | 0.00 | 0.00 | 72 | 1012.2 |
| 20260504221557 | 77 | 131 | 0.0 | 3.5 | 0.00 | 0.00 | 0.00 | 71 | 1012.4 |
| 20260504220047 | 77 | 205 | 0.0 | 5.2 | 0.00 | 0.00 | 0.00 | 70 | 1012.4 |
| 20260504214550 | 78 | 147 | 0.0 | 3.5 | 0.00 | 0.00 | 0.00 | 69 | 1012.6 |
| 20260504213051 | 79 | 135 | 0.0 | 2.6 | 0.00 | 0.00 | 0.00 | 69 | 1012.6 |
| 20260504211541 | 79 | 218 | 0.0 | 6.1 | 0.00 | 0.00 | 0.00 | 67 | 1012.7 |
| 20260504210049 | 80 | 169 | 0.0 | 4.3 | 0.00 | 0.00 | 0.00 | 66 | 1013.0 |
| 20260504204617 | 80 | 168 | 0.0 | 3.5 | 0.00 | 0.00 | 0.00 | 66 | 1013.0 |
| 20260504203036 | 80 | 150 | 0.9 | 4.3 | 0.00 | 0.00 | 0.00 | 66 | 1013.3 |
| 20260504201532 | 81 | 191 | 0.0 | 4.3 | 0.00 | 0.00 | 0.00 | 64 | 1013.5 |
| 20260504200037 | 80 | 219 | 0.0 | 7.8 | 0.00 | 0.00 | 0.00 | 66 | 1013.5 |
| 20260504194538 | 80 | 18 | 0.0 | 3.5 | 0.00 | 0.00 | 0.00 | 65 | 1013.6 |
| 20260504193028 | 81 | 238 | 0.0 | 4.3 | 0.00 | 0.00 | 0.00 | 64 | 1014.1 |
| 20260504191529 | 81 | 129 | 0.0 | 3.5 | 0.00 | 0.00 | 0.00 | 64 | 1014.2 |
| 20260504190033 | 81 | 230 | 0.9 | 4.3 | 0.00 | 0.00 | 0.00 | 63 | 1014.2 |
| 20260504184525 | 80 | 197 | 0.9 | 5.2 | 0.00 | 0.00 | 0.00 | 64 | 1014.3 |
| 20260504183024 | 80 | 75 | 0.0 | 6.1 | 0.00 | 0.00 | 0.00 | 66 | 1014.3 |
| 20260504181518 | 80 | 187 | 0.0 | 8.7 | 0.00 | 0.00 | 0.00 | 65 | 1014.6 |
| 20260504180018 | 80 | 172 | 0.0 | 5.2 | 0.00 | 0.00 | 0.00 | 65 | 1014.8 |
| 20260504174515 | 79 | 163 | 0.0 | 5.2 | 0.00 | 0.00 | 0.00 | 65 | 1014.8 |
| 20260504173012 | 79 | 154 | 0.0 | 4.3 | 0.00 | 0.00 | 0.00 | 65 | 1015.3 |
| 20260504171532 | 78 | 128 | 0.9 | 7.0 | 0.00 | 0.00 | 0.00 | 64 | 1015.3 |
| 20260504081523 | 63 | 204 | 0.0 | 0.0 | 0.00 | 0.00 | 0.00 | 79 | 1016.7 |
| 20260504044547 | 64 | 203 | 0.0 | 0.0 | 0.00 | 0.00 | 0.00 | 72 | 1018.8 |
| 20260504043048 | 63 | 203 | 0.0 | 0.0 | 0.00 | 0.00 | 0.00 | 72 | 1018.9 |
| 20260504041549 | 64 | 203 | 0.0 | 0.0 | 0.00 | 0.00 | 0.00 | 70 | 1018.7 |
| 20260504040046 | 64 | 203 | 0.0 | 0.0 | 0.00 | 0.00 | 0.00 | 69 | 1018.7 |
| 20260504034600 | 65 | 203 | 0.0 | 0.0 | 0.00 | 0.00 | 0.00 | 68 | 1018.8 |
| 20260504033044 | 66 | 203 | 0.0 | 0.0 | 0.00 | 0.00 | 0.00 | 66 | 1018.8 |
| 20260504031543 | 66 | 203 | 0.0 | 0.0 | 0.00 | 0.00 | 0.00 | 65 | 1018.6 |
| 20260504030044 | 67 | 219 | 0.0 | 0.0 | 0.00 | 0.00 | 0.00 | 64 | 1018.6 |
| 20260504024543 | 67 | 219 | 0.0 | 0.0 | 0.00 | 0.00 | 0.00 | 64 | 1018.7 |
| 20260504023042 | 68 | 217 | 0.0 | 0.0 | 0.00 | 0.00 | 0.00 | 63 | 1018.7 |
| 20260504021541 | 68 | 217 | 0.0 | 0.9 | 0.00 | 0.00 | 0.00 | 63 | 1018.6 |
| 20260504020041 | 69 | 216 | 0.0 | 0.9 | 0.00 | 0.00 | 0.00 | 61 | 1018.6 |
| 20260504014553 | 70 | 207 | 0.0 | 0.9 | 0.00 | 0.00 | 0.00 | 61 | 1018.5 |
| 20260504013042 | 70 | 222 | 0.0 | 0.9 | 0.00 | 0.00 | 0.00 | 60 | 1018.6 |
| 20260504011543 | 71 | 181 | 0.0 | 0.9 | 0.00 | 0.00 | 0.00 | 58 | 1018.5 |
| 20260504010039 | 71 | 211 | 0.0 | 0.9 | 0.00 | 0.00 | 0.00 | 56 | 1018.5 |
| 20260504004539 | 72 | 245 | 0.0 | 0.9 | 0.00 | 0.00 | 0.00 | 54 | 1018.4 |
| 20260504003048 | 73 | 263 | 0.0 | 2.6 | 0.00 | 0.00 | 0.00 | 52 | 1018.3 |
| 20260504001536 | 74 | 133 | 0.0 | 1.7 | 0.00 | 0.00 | 0.00 | 51 | 1018.4 |
| 20260504000035 | 75 | 212 | 0.0 | 2.6 | 0.00 | 0.00 | 0.00 | 50 | 1018.4 |
| 20260503234544 | 77 | 167 | 0.0 | 5.2 | 0.00 | 0.00 | 0.00 | 47 | 1018.5 |
| 20260503233032 | 77 | 119 | 0.0 | 2.6 | 0.00 | 0.00 | 0.00 | 47 | 1018.7 |
| 20260503231530 | 78 | 81 | 0.0 | 2.6 | 0.00 | 0.00 | 0.00 | 46 | 1018.6 |
| 20260503230029 | 77 | 27 | 0.0 | 2.6 | 0.00 | 0.00 | 0.00 | 46 | 1018.8 |
| 20260503224527 | 77 | 214 | 0.9 | 5.2 | 0.00 | 0.00 | 0.00 | 46 | 1018.8 |